Location: *
(34.8620°S, 39.3380°E)
Time: 12:42:57
(UTC+00:00)

SAOCOM 1-B - Pass Details

Date: 29 May 2022
Orbit: 621 x 623 km, 97.9° (Epoch: 04 July)

Event Time Altitude Azimuth Distance (km) Brightness Sun altitude
Rises 02:56:22 0° 157° (SSE) 2,938 ? -16.8°
Reaches altitude 10° 02:58:46 10° 147° (SSE) 2,022 ? -16.3°
Maximum altitude 03:02:45 33° 83° (E) 1,069 ? -15.5°
Drops below altitude 10° 03:06:40 10° 18° (NNE) 1,997 ? -14.8°
Sets 03:09:01 0° 8° (N) 2,894 ? -14.3°
